Lakenheath RAF, United Kingdom

2:08 PM BST on August 23, 2017 (GMT +0100)
Lakenheath Air Base

Weather History for EGUL - October, 2012

Change the Weather History Date:

Wednesday, October 31, 2012

  Actual Average Record
Temperature  
Mean Temperature 48 °F -  
Max Temperature 54 °F - - ()
Min Temperature 41 °F - - ()
Degree Days  
Heating Degree Days 18    
Moisture  
Dew Point 41 °F    
Average Humidity 75    
Maximum Humidity 85    
Minimum Humidity 66    
Precipitation  
Precipitation 0.00 in - - ()
Sea Level Pressure  
Sea Level Pressure 29.19 in    
Wind  
Wind Speed 11 mph ()    
Max Wind Speed 21 mph    
Max Gust Speed 28 mph    
Visibility 6.2 miles    
Events      
T = Trace of Precipitation, MM = Missing Value Source: Averaged Metar Reports

Daily Weather History Graph

Daily Weather History Graph

Search for Another Location

Airport or City:

Trip Planner

Search our weather history database for the weather conditions in past years. The results will help you decide how hot, cold, wet, or windy it might be!

Date:

Astronomy

Oct. 31, 2012 Rise Set
Actual Time 6:52 AM GMT 4:29 PM GMT
Civil Twilight 6:16 AM GMT 5:05 PM GMT
Nautical Twilight 5:36 AM GMT 5:45 PM GMT
Astronomical Twilight 4:56 AM GMT 6:24 PM GMT
Moon 5:14 PM GMT (10/31) 8:34 AM GMT (10/31)
Length of Visible Light 10h 48m
Length of Day
9h 36m
Full, 97% of the Moon is Illuminated
Oct 31
Full
Nov 7
Last Quarter
Nov 13
New
Nov 20
First Quarter
Nov 28
Full

Hourly Weather History & Observations

Time (GMT) Temp. Windchill Dew Point Humidity Pressure Visibility Wind Dir Wind Speed Gust Speed Precip Events Conditions
12:58 AM 42.3 °F 37.3 °F 37.9 °F 85% 29.43 in 6.2 mi South 8.1 mph - 0.00 in   Drizzle
1:58 AM 42.1 °F 36.6 °F 37.9 °F 85% 29.41 in 6.2 mi South 9.2 mph - 0.00 in   Drizzle
2:58 AM 41.4 °F 35.7 °F 36.9 °F 84% 29.38 in 6.2 mi South 9.2 mph - 0.00 in   Drizzle
3:58 AM 42.1 °F 36.6 °F 36.7 °F 81% 29.36 in 6.2 mi South 9.2 mph - 0.00 in   Drizzle
4:58 AM 42.8 °F 38.0 °F 36.9 °F 80% 29.33 in 6.2 mi South 8.1 mph - 0.00 in   Drizzle
5:58 AM 43.2 °F 37.0 °F 36.7 °F 78% 29.31 in 6.2 mi South 11.5 mph - N/A   Mostly Cloudy
6:55 AM 44.1 °F 38.6 °F 36.7 °F 75% 29.30 in 6.2 mi South 10.4 mph - N/A   Mostly Cloudy
7:55 AM 45.9 °F 40.4 °F 37.8 °F 73% 29.29 in 6.2 mi South 11.5 mph 17.3 mph N/A   Overcast
8:37 AM 46.4 °F 40.7 °F 39.2 °F 76% 29.27 in 6.2 mi South 12.7 mph - N/A   Mostly Cloudy
8:58 AM 46.4 °F 39.8 °F 39.7 °F 78% 29.27 in 6.2 mi South 16.1 mph 19.6 mph N/A   Mostly Cloudy
9:00 AM 46.4 °F 39.5 °F 41.0 °F 81% 29.26 in 6.2 mi South 17.3 mph 19.6 mph N/A   Mostly Cloudy
9:43 AM 48.2 °F - 41.0 °F 76% 29.24 in 6.2 mi South 15.0 mph - N/A   Light Drizzle
9:58 AM 48.6 °F - 42.1 °F 78% 29.25 in 6.2 mi South 11.5 mph 20.7 mph N/A   Mostly Cloudy
10:35 AM 53.6 °F - 42.8 °F 67% 29.22 in 6.2 mi SSW 15.0 mph 21.9 mph N/A   Mostly Cloudy
10:58 AM 52.9 °F - 43.0 °F 69% 29.22 in 6.2 mi South 16.1 mph 24.2 mph N/A   Partly Cloudy
11:58 AM 52.9 °F - 44.1 °F 72% 29.19 in 6.2 mi South 17.3 mph 25.3 mph N/A   Mostly Cloudy
12:58 PM 53.6 °F - 45.1 °F 73% 29.17 in 6.2 mi South 18.4 mph 21.9 mph N/A   Mostly Cloudy
1:58 PM 54.0 °F - 45.5 °F 73% 29.14 in 6.2 mi South 15.0 mph 25.3 mph N/A   Mostly Cloudy
2:58 PM 53.8 °F - 43.5 °F 68% 29.12 in 6.2 mi South 18.4 mph 27.6 mph N/A   Overcast
3:58 PM 53.1 °F - 41.9 °F 66% 29.10 in 6.2 mi South 17.3 mph 24.2 mph N/A   Overcast
4:58 PM 52.2 °F - 41.9 °F 68% 29.09 in 6.2 mi South 15.0 mph 21.9 mph N/A   Mostly Cloudy
5:58 PM 51.6 °F - 43.0 °F 72% 29.07 in 6.2 mi South 16.1 mph 25.3 mph N/A   Mostly Cloudy
6:58 PM 51.1 °F - 43.2 °F 74% 29.05 in 6.2 mi SSE 16.1 mph 27.6 mph N/A   Mostly Cloudy
7:58 PM 50.9 °F - 42.6 °F 73% 29.02 in 6.2 mi SSE 20.7 mph 25.3 mph N/A   Mostly Cloudy
8:58 PM 50.5 °F - 42.4 °F 74% 29.00 in 6.2 mi South 18.4 mph 25.3 mph N/A   Overcast
9:58 PM 50.4 °F - 42.1 °F 73% 28.97 in 6.2 mi SSE 15.0 mph 21.9 mph N/A   Mostly Cloudy
10:58 PM 50.7 °F - 43.2 °F 75% 28.92 in 6.2 mi SSE 16.1 mph 27.6 mph N/A   Mostly Cloudy
11:58 PM 51.3 °F - 44.8 °F 78% 28.89 in 6.2 mi SSE 17.3 mph 26.5 mph N/A   Mostly Cloudy